| time (UTC) | temp C | wind direction | speed KPH | gust KPH | rain 1hr cm | rain 24hr cm | rain mn cm | humidity % | barometer mb |
| 20260509043751 | 12 | 246 | 0.0 | 1.6 | 0.05 | 0.03 | 0.03 | 99 | 1010.6 |
| 20260509043247 | 12 | 157 | 0.0 | 0.0 | 0.05 | 0.03 | 0.03 | 99 | 1010.6 |
| 20260509042743 | 12 | 135 | 0.0 | 3.2 | 0.05 | 0.00 | 0.00 | 99 | 1010.6 |
| 20260509042239 | 12 | 121 | 0.0 | 1.6 | 0.05 | 0.00 | 0.00 | 99 | 1010.6 |
| 20260509041736 | 12 | 166 | 0.0 | 1.6 | 0.00 | 0.00 | 0.00 | 99 | 1010.7 |
| 20260509041233 | 12 | 160 | 0.0 | 1.6 | 0.00 | 0.00 | 0.00 | 99 | 1010.7 |
| 20260509040732 | 12 | 174 | 0.0 | 3.2 | 0.05 | 0.00 | 0.00 | 99 | 1010.7 |
| 20260509040228 | 12 | 113 | 0.0 | 1.6 | 0.05 | 0.00 | 0.00 | 99 | 1010.8 |
| 20260509035725 | 12 | 178 | 0.0 | 3.2 | 0.05 | 0.23 | 0.23 | 99 | 1010.9 |
| 20260509035222 | 12 | 315 | 0.0 | 1.6 | 0.05 | 0.23 | 0.23 | 99 | 1010.8 |
| 20260509034719 | 12 | 193 | 0.0 | 1.6 | 0.05 | 0.23 | 0.23 | 99 | 1010.7 |
| 20260509034217 | 12 | 102 | 0.0 | 3.2 | 0.05 | 0.20 | 0.20 | 99 | 1010.9 |
| 20260509033714 | 12 | 269 | 0.0 | 1.6 | 0.13 | 0.20 | 0.20 | 99 | 1010.9 |
| 20260509033211 | 12 | 237 | 0.0 | 3.2 | 0.05 | 0.20 | 0.20 | 99 | 1011.0 |
| 20260509032708 | 12 | 134 | 0.0 | 1.6 | 0.05 | 0.18 | 0.18 | 99 | 1011.1 |
| 20260509032205 | 12 | 173 | 0.0 | 3.2 | 0.13 | 0.18 | 0.18 | 99 | 1011.0 |
| 20260509031702 | 12 | 315 | 0.0 | 3.2 | 0.05 | 0.18 | 0.18 | 99 | 1011.1 |
| 20260509031159 | 12 | 185 | 1.6 | 1.6 | 0.05 | 0.18 | 0.18 | 98 | 1010.9 |
| 20260509030658 | 12 | 230 | 0.0 | 1.6 | 0.05 | 0.15 | 0.15 | 98 | 1011.1 |
| 20260509030155 | 12 | 249 | 0.0 | 1.6 | 0.13 | 0.15 | 0.15 | 98 | 1011.1 |
| 20260509025650 | 12 | 123 | 1.6 | 3.2 | 0.05 | 0.15 | 0.15 | 98 | 1011.2 |
| 20260509025147 | 12 | 166 | 0.0 | 0.0 | 0.05 | 0.15 | 0.15 | 98 | 1011.1 |
| 20260509024642 | 12 | 279 | 0.0 | 3.2 | 0.05 | 0.15 | 0.15 | 98 | 1011.1 |
| 20260509024138 | 12 | 175 | 3.2 | 3.2 | 0.00 | 0.13 | 0.13 | 98 | 1011.3 |
| 20260509023636 | 12 | 256 | 0.0 | 3.2 | 0.05 | 0.13 | 0.13 | 98 | 1011.4 |
| 20260509023133 | 12 | 269 | 0.0 | 3.2 | 0.05 | 0.13 | 0.13 | 97 | 1011.2 |
| 20260509022629 | 12 | 153 | 1.6 | 3.2 | 0.13 | 0.13 | 0.13 | 97 | 1011.5 |
| 20260509022127 | 12 | 283 | 3.2 | 3.2 | 0.05 | 0.10 | 0.10 | 97 | 1011.5 |
| 20260509021624 | 12 | 194 | 0.0 | 3.2 | 0.05 | 0.10 | 0.10 | 97 | 1011.5 |
| 20260509021121 | 12 | 224 | 0.0 | 3.2 | 0.05 | 0.10 | 0.10 | 97 | 1011.5 |
| 20260509020619 | 12 | 191 | 0.0 | 3.2 | 0.13 | 0.10 | 0.10 | 97 | 1011.2 |
| 20260509020115 | 12 | 103 | 0.0 | 3.2 | 0.05 | 0.08 | 0.08 | 97 | 1011.6 |
| 20260509015615 | 12 | 282 | 0.0 | 3.2 | 0.05 | 0.08 | 0.08 | 97 | 1011.4 |
| 20260509015112 | 12 | 147 | 0.0 | 1.6 | 0.00 | 0.05 | 0.05 | 97 | 1011.4 |
| 20260509014608 | 12 | 212 | 0.0 | 0.0 | 0.05 | 0.05 | 0.05 | 97 | 1011.0 |
| 20260509014105 | 12 | 205 | 0.0 | 3.2 | 0.05 | 0.05 | 0.05 | 97 | 1010.9 |
| 20260509013602 | 12 | 329 | 1.6 | 1.6 | 0.00 | 0.05 | 0.05 | 96 | 1010.7 |
| 20260509013057 | 12 | 319 | 0.0 | 0.0 | 0.00 | 0.05 | 0.05 | 95 | 1010.7 |
| 20260509012554 | 12 | 141 | 0.0 | 1.6 | 0.00 | 0.05 | 0.05 | 94 | 1010.6 |
| 20260509012051 | 12 | 89 | 0.0 | 1.6 | 0.05 | 0.05 | 0.05 | 94 | 1010.4 |
| 20260509011549 | 12 | 117 | 3.2 | 3.2 | 0.00 | 0.05 | 0.05 | 94 | 1010.6 |
| 20260509011046 | 12 | 123 | 1.6 | 1.6 | 0.00 | 0.05 | 0.05 | 93 | 1010.6 |
| 20260509010544 | 12 | 66 | 0.0 | 0.0 | 0.00 | 0.05 | 0.05 | 93 | 1010.6 |
| 20260509010040 | 12 | 269 | 0.0 | 1.6 | 0.00 | 0.05 | 0.05 | 94 | 1010.7 |
| 20260509005538 | 12 | 230 | 0.0 | 1.6 | 0.00 | 0.05 | 0.05 | 92 | 1010.6 |
| 20260509005038 | 12 | 133 | 0.0 | 3.2 | 0.00 | 0.05 | 0.05 | 91 | 1010.5 |
| 20260509004535 | 12 | 119 | 0.0 | 3.2 | 0.00 | 0.05 | 0.05 | 90 | 1010.3 |
| 20260509004032 | 12 | 141 | 0.0 | 4.8 | 0.00 | 0.05 | 0.05 | 91 | 1010.4 |
| 20260509003530 | 12 | 55 | 0.0 | 1.6 | 0.00 | 0.05 | 0.05 | 91 | 1010.5 |
| 20260509003027 | 13 | 89 | 0.0 | 1.6 | 0.05 | 0.05 | 0.05 | 90 | 1010.5 |
| 20260509002525 | 13 | 143 | 0.0 | 3.2 | 0.05 | 0.05 | 0.05 | 91 | 1010.7 |
| 20260509002022 | 13 | 336 | 3.2 | 4.8 | 0.00 | 0.03 | 0.03 | 90 | 1010.5 |
| 20260509001519 | 13 | 273 | 0.0 | 4.8 | 0.05 | 0.03 | 0.03 | 83 | 1010.7 |
| 20260509001015 | 13 | 192 | 1.6 | 3.2 | 0.05 | 0.03 | 0.03 | 88 | 1010.6 |
| 20260509000514 | 13 | 142 | 0.0 | 0.0 | 0.00 | 0.03 | 0.03 | 87 | 1010.5 |
| 20260509000009 | 14 | 309 | 0.0 | 1.6 | 0.00 | 0.03 | 0.03 | 82 | 1010.7 |
| 20260508235507 | 14 | 222 | 3.2 | 8.0 | 0.00 | 0.03 | 0.03 | 75 | 1010.6 |
| 20260508235003 | 13 | 133 | 3.2 | 4.8 | 0.00 | 0.03 | 0.03 | 88 | 1010.7 |
| 20260508234500 | 13 | 344 | 0.0 | 1.6 | 0.00 | 0.03 | 0.03 | 88 | 1010.4 |
| 20260508233958 | 13 | 299 | 0.0 | 1.6 | 0.00 | 0.03 | 0.03 | 89 | 1010.3 |
| 20260508233457 | 13 | 25 | 0.0 | 1.6 | 0.00 | 0.03 | 0.03 | 86 | 1010.2 |
| 20260508232954 | 13 | 108 | 0.0 | 0.0 | 0.00 | 0.03 | 0.03 | 87 | 1010.1 |
| 20260508232451 | 13 | 142 | 0.0 | 0.0 | 0.00 | 0.03 | 0.03 | 89 | 1010.1 |
| 20260508231948 | 13 | 98 | 3.2 | 3.2 | 0.00 | 0.03 | 0.03 | 89 | 1009.9 |
| 20260508231445 | 13 | 80 | 1.6 | 1.6 | 0.00 | 0.03 | 0.03 | 88 | 1010.0 |
| 20260508230942 | 13 | 123 | 1.6 | 1.6 | 0.00 | 0.03 | 0.03 | 88 | 1010.0 |
| 20260508230438 | 13 | 129 | 0.0 | 1.6 | 0.00 | 0.03 | 0.03 | 88 | 1010.0 |
| 20260508225935 | 14 | 129 | 0.0 | 0.0 | 0.05 | 0.03 | 0.03 | 85 | 1010.2 |
| 20260508225432 | 14 | 294 | 1.6 | 1.6 | 0.05 | 0.03 | 0.03 | 85 | 1010.2 |
| 20260508224930 | 14 | 142 | 0.0 | 1.6 | 0.00 | 0.00 | 0.00 | 83 | 1010.1 |
| 20260508224427 | 14 | 109 | 1.6 | 3.2 | 0.00 | 0.00 | 0.00 | 82 | 1010.1 |
| 20260508223924 | 15 | 115 | 0.0 | 3.2 | 0.00 | 0.00 | 0.00 | 82 | 1010.3 |
| 20260508223422 | 15 | 89 | 0.0 | 1.6 | 0.00 | 0.00 | 0.00 | 82 | 1010.2 |
| 20260508222919 | 15 | 113 | 0.0 | 0.0 | 0.00 | 0.00 | 0.00 | 80 | 1010.0 |
| 20260508222417 | 15 | 103 | 0.0 | 1.6 | 0.00 | 0.00 | 0.00 | 79 | 1010.1 |
| 20260508221913 | 15 | 127 | 0.0 | 1.6 | 0.00 | 0.00 | 0.00 | 78 | 1010.1 |
| 20260508221408 | 15 | 129 | 0.0 | 1.6 | 0.00 | 0.00 | 0.00 | 76 | 1010.0 |
| 20260508220905 | 15 | 100 | 3.2 | 3.2 | 0.00 | 0.00 | 0.00 | 73 | 1009.9 |
| 20260508220402 | 16 | 129 | 0.0 | 0.0 | 0.00 | 0.00 | 0.00 | 74 | 1009.9 |
| 20260508215858 | 16 | 111 | 0.0 | 3.2 | 0.00 | 0.00 | 0.00 | 73 | 1009.9 |
| 20260508215355 | 16 | 124 | 0.0 | 1.6 | 0.00 | 0.00 | 0.00 | 75 | 1010.0 |
| 20260508214852 | 16 | 142 | 0.0 | 0.0 | 0.00 | 0.00 | 0.00 | 74 | 1010.1 |
| 20260508214349 | 16 | 129 | 0.0 | 0.0 | 0.00 | 0.00 | 0.00 | 68 | 1010.1 |
| 20260508213845 | 16 | 142 | 0.0 | 1.6 | 0.00 | 0.00 | 0.00 | 67 | 1010.0 |
| 20260508213343 | 16 | 124 | 0.0 | 0.0 | 0.00 | 0.00 | 0.00 | 64 | 1010.1 |
| 20260508212838 | 17 | 135 | 0.0 | 1.6 | 0.00 | 0.00 | 0.00 | 63 | 1010.1 |
| 20260508212335 | 17 | 218 | 0.0 | 1.6 | 0.00 | 0.00 | 0.00 | 61 | 1010.3 |
| 20260508211831 | 17 | 309 | 0.0 | 0.0 | 0.00 | 0.00 | 0.00 | 60 | 1010.4 |
| 20260508211327 | 17 | 154 | 0.0 | 1.6 | 0.00 | 0.00 | 0.00 | 55 | 1010.1 |
| 20260508210825 | 17 | 171 | 0.0 | 3.2 | 0.00 | 0.00 | 0.00 | 53 | 1010.1 |
| 20260508210321 | 17 | 176 | 0.0 | 1.6 | 0.00 | 0.00 | 0.00 | 54 | 1010.1 |
| 20260508205818 | 17 | 119 | 0.0 | 4.8 | 0.00 | 0.00 | 0.00 | 54 | 1010.3 |
| 20260508205314 | 17 | 212 | 0.0 | 3.2 | 0.00 | 0.00 | 0.00 | 54 | 1010.2 |
| 20260508204811 | 17 | 154 | 0.0 | 3.2 | 0.00 | 0.00 | 0.00 | 55 | 1010.2 |
| 20260508204308 | 17 | 196 | 3.2 | 3.2 | 0.00 | 0.00 | 0.00 | 50 | 1010.4 |
| 20260508203804 | 17 | 224 | 0.0 | 3.2 | 0.00 | 0.00 | 0.00 | 54 | 1010.5 |
| 20260508203300 | 17 | 161 | 1.6 | 4.8 | 0.00 | 0.00 | 0.00 | 49 | 1010.7 |
| 20260508202755 | 17 | 167 | 0.0 | 4.8 | 0.00 | 0.00 | 0.00 | 49 | 1010.7 |
| 20260508202253 | 17 | 210 | 0.0 | 3.2 | 0.00 | 0.00 | 0.00 | 49 | 1010.9 |
| 20260508201750 | 18 | 203 | 0.0 | 3.2 | 0.00 | 0.00 | 0.00 | 52 | 1011.0 |
| 20260508201247 | 18 | 172 | 3.2 | 3.2 | 0.00 | 0.00 | 0.00 | 50 | 1011.0 |
| 20260508200743 | 18 | 116 | 0.0 | 3.2 | 0.00 | 0.00 | 0.00 | 52 | 1011.0 |
| 20260508200240 | 18 | 219 | 3.2 | 3.2 | 0.00 | 0.00 | 0.00 | 53 | 1011.0 |
| 20260508195736 | 18 | 175 | 3.2 | 3.2 | 0.00 | 0.00 | 0.00 | 52 | 1011.2 |
| 20260508195232 | 18 | 269 | 0.0 | 3.2 | 0.00 | 0.00 | 0.00 | 50 | 1011.4 |
| 20260508194729 | 18 | 185 | 0.0 | 3.2 | 0.00 | 0.00 | 0.00 | 49 | 1011.4 |
| 20260508194226 | 18 | 169 | 1.6 | 3.2 | 0.00 | 0.00 | 0.00 | 52 | 1011.4 |
| 20260508193723 | 18 | 192 | 1.6 | 4.8 | 0.00 | 0.00 | 0.00 | 46 | 1011.3 |
| 20260508193220 | 18 | 58 | 0.0 | 3.2 | 0.00 | 0.00 | 0.00 | 53 | 1011.5 |
| 20260508192716 | 18 | 294 | 3.2 | 4.8 | 0.00 | 0.00 | 0.00 | 49 | 1011.3 |
| 20260508192213 | 18 | 217 | 3.2 | 3.2 | 0.00 | 0.00 | 0.00 | 52 | 1011.4 |
| 20260508191711 | 18 | 155 | 0.0 | 1.6 | 0.00 | 0.00 | 0.00 | 50 | 1011.5 |
| 20260508191207 | 18 | 181 | 3.2 | 3.2 | 0.00 | 0.00 | 0.00 | 48 | 1011.4 |
| 20260508190705 | 18 | 116 | 0.0 | 4.8 | 0.00 | 0.00 | 0.00 | 50 | 1011.5 |
| 20260508190201 | 18 | 160 | 0.0 | 4.8 | 0.00 | 0.00 | 0.00 | 46 | 1011.6 |
| 20260508185658 | 18 | 167 | 3.2 | 3.2 | 0.00 | 0.00 | 0.00 | 47 | 1011.7 |
| 20260508185155 | 19 | 132 | 0.0 | 8.0 | 0.00 | 0.00 | 0.00 | 48 | 1011.8 |
| 20260508184652 | 20 | 301 | 4.8 | 9.7 | 0.00 | 0.00 | 0.00 | 50 | 1011.9 |
| 20260508184149 | 20 | 177 | 3.2 | 6.4 | 0.00 | 0.00 | 0.00 | 47 | 1011.8 |
| 20260508183646 | 20 | 192 | 4.8 | 4.8 | 0.00 | 0.00 | 0.00 | 47 | 1011.9 |
| 20260508183142 | 20 | 303 | 3.2 | 6.4 | 0.00 | 0.00 | 0.00 | 46 | 1012.1 |
| 20260508182638 | 18 | 220 | 3.2 | 4.8 | 0.00 | 0.00 | 0.00 | 46 | 1012.0 |
| 20260508182135 | 18 | 173 | 0.0 | 8.0 | 0.00 | 0.00 | 0.00 | 50 | 1012.1 |
| 20260508181630 | 18 | 184 | 3.2 | 8.0 | 0.00 | 0.00 | 0.00 | 46 | 1012.1 |
| 20260508181128 | 19 | 167 | 0.0 | 6.4 | 0.00 | 0.00 | 0.00 | 47 | 1012.3 |
| 20260508180625 | 19 | 257 | 6.4 | 11.3 | 0.00 | 0.00 | 0.00 | 48 | 1012.3 |
| 20260508180121 | 18 | 161 | 3.2 | 8.0 | 0.00 | 0.00 | 0.00 | 48 | 1012.4 |
| 20260508175618 | 18 | 269 | 0.0 | 6.4 | 0.00 | 0.00 | 0.00 | 49 | 1012.5 |
| 20260508175115 | 18 | 198 | 3.2 | 6.4 | 0.00 | 0.00 | 0.00 | 50 | 1012.6 |
| 20260508174612 | 17 | 274 | 4.8 | 9.7 | 0.00 | 0.00 | 0.00 | 53 | 1013.0 |
| 20260508174109 | 17 | 222 | 4.8 | 6.4 | 0.00 | 0.00 | 0.00 | 50 | 1013.0 |
| 20260508173606 | 17 | 299 | 3.2 | 4.8 | 0.00 | 0.00 | 0.00 | 51 | 1013.0 |
| 20260508173102 | 17 | 310 | 0.0 | 8.0 | 0.00 | 0.00 | 0.00 | 52 | 1013.1 |
| 20260508172600 | 17 | 175 | 3.2 | 6.4 | 0.00 | 0.00 | 0.00 | 52 | 1013.1 |
| 20260508172056 | 17 | 50 | 0.0 | 3.2 | 0.00 | 0.00 | 0.00 | 52 | 1013.0 |
| 20260508171552 | 18 | 192 | 3.2 | 6.4 | 0.00 | 0.00 | 0.00 | 54 | 1013.1 |
| 20260508171049 | 17 | 320 | 4.8 | 4.8 | 0.00 | 0.00 | 0.00 | 54 | 1013.2 |
| 20260508170546 | 17 | 170 | 3.2 | 4.8 | 0.00 | 0.00 | 0.00 | 52 | 1013.4 |
| 20260508170043 | 17 | 246 | 3.2 | 6.4 | 0.00 | 0.00 | 0.00 | 51 | 1013.6 |
| 20260508165541 | 17 | 322 | 4.8 | 6.4 | 0.00 | 0.00 | 0.00 | 55 | 1013.7 |
| 20260508165038 | 17 | 328 | 3.2 | 4.8 | 0.00 | 0.00 | 0.00 | 56 | 1013.7 |
| 20260508164534 | 17 | 212 | 1.6 | 4.8 | 0.00 | 0.00 | 0.00 | 55 | 1013.6 |
| 20260508164031 | 18 | 202 | 3.2 | 4.8 | 0.00 | 0.00 | 0.00 | 48 | 1013.6 |
| 20260508163528 | 18 | 289 | 1.6 | 4.8 | 0.00 | 0.00 | 0.00 | 47 | 1013.8 |
| 20260508163025 | 18 | 266 | 3.2 | 4.8 | 0.00 | 0.00 | 0.00 | 48 | 1013.9 |
| 20260508162522 | 18 | 338 | 3.2 | 9.7 | 0.00 | 0.00 | 0.00 | 48 | 1013.8 |
| 20260508162019 | 19 | 258 | 3.2 | 8.0 | 0.00 | 0.00 | 0.00 | 46 | 1014.0 |
| 20260508161516 | 19 | 305 | 4.8 | 6.4 | 0.00 | 0.00 | 0.00 | 47 | 1014.1 |
| 20260508161013 | 20 | 85 | 1.6 | 6.4 | 0.00 | 0.00 | 0.00 | 47 | 1013.9 |
| 20260508160512 | 19 | 108 | 4.8 | 8.0 | 0.00 | 0.00 | 0.00 | 48 | 1014.2 |
| 20260508160008 | 18 | 184 | 1.6 | 9.7 | 0.00 | 0.00 | 0.00 | 50 | 1014.1 |
| 20260508155505 | 18 | 323 | 1.6 | 12.9 | 0.00 | 0.00 | 0.00 | 48 | 1014.1 |
| 20260508155001 | 18 | 102 | 3.2 | 9.7 | 0.00 | 0.00 | 0.00 | 49 | 1014.2 |
| 20260508154459 | 17 | 240 | 3.2 | 8.0 | 0.00 | 0.00 | 0.00 | 49 | 1014.4 |
| 20260508153955 | 18 | 257 | 1.6 | 6.4 | 0.00 | 0.00 | 0.00 | 48 | 1014.1 |
| 20260508153453 | 18 | 164 | 4.8 | 6.4 | 0.00 | 0.00 | 0.00 | 49 | 1014.3 |
| 20260508152949 | 17 | 258 | 3.2 | 9.7 | 0.00 | 0.00 | 0.00 | 49 | 1014.1 |
| 20260508152446 | 17 | 296 | 3.2 | 9.7 | 0.00 | 0.00 | 0.00 | 48 | 1014.2 |
| 20260508151942 | 18 | 234 | 3.2 | 4.8 | 0.00 | 0.00 | 0.00 | 47 | 1014.2 |
| 20260508151439 | 18 | 152 | 4.8 | 8.0 | 0.00 | 0.00 | 0.00 | 46 | 1014.3 |
| 20260508150935 | 18 | 180 | 3.2 | 4.8 | 0.00 | 0.00 | 0.00 | 46 | 1014.3 |
| 20260508150432 | 18 | 207 | 4.8 | 8.0 | 0.00 | 0.00 | 0.00 | 48 | 1014.4 |
| 20260508145928 | 17 | 195 | 3.2 | 8.0 | 0.00 | 0.00 | 0.00 | 47 | 1014.3 |
| 20260508145425 | 17 | 137 | 0.0 | 6.4 | 0.00 | 0.00 | 0.00 | 46 | 1014.2 |
| 20260508144921 | 17 | 136 | 3.2 | 8.0 | 0.00 | 0.00 | 0.00 | 49 | 1014.4 |
| 20260508144419 | 18 | 283 | 3.2 | 6.4 | 0.00 | 0.00 | 0.00 | 46 | 1014.4 |
| 20260508143916 | 17 | 130 | 3.2 | 6.4 | 0.00 | 0.00 | 0.00 | 49 | 1014.3 |
| 20260508143414 | 17 | 267 | 4.8 | 8.0 | 0.00 | 0.00 | 0.00 | 47 | 1014.4 |
| 20260508142910 | 17 | 285 | 3.2 | 6.4 | 0.00 | 0.00 | 0.00 | 50 | 1014.6 |
| 20260508142407 | 17 | 100 | 1.6 | 6.4 | 0.00 | 0.00 | 0.00 | 49 | 1014.5 |
| 20260508141903 | 17 | 144 | 0.0 | 3.2 | 0.00 | 0.00 | 0.00 | 52 | 1014.5 |
| 20260508141400 | 17 | 264 | 3.2 | 6.4 | 0.00 | 0.00 | 0.00 | 48 | 1014.5 |
| 20260508140858 | 17 | 279 | 1.6 | 6.4 | 0.00 | 0.00 | 0.00 | 49 | 1014.6 |
| 20260508140355 | 16 | 161 | 1.6 | 11.3 | 0.00 | 0.00 | 0.00 | 48 | 1014.7 |
| 20260508135850 | 17 | 46 | 3.2 | 6.4 | 0.00 | 0.00 | 0.00 | 47 | 1014.8 |
| 20260508135347 | 16 | 180 | 1.6 | 6.4 | 0.00 | 0.00 | 0.00 | 54 | 1014.7 |
| 20260508134843 | 16 | 329 | 9.7 | 9.7 | 0.00 | 0.00 | 0.00 | 52 | 1014.9 |
| 20260508134340 | 16 | 194 | 3.2 | 4.8 | 0.00 | 0.00 | 0.00 | 53 | 1014.8 |
| 20260508133836 | 15 | 225 | 1.6 | 4.8 | 0.00 | 0.00 | 0.00 | 51 | 1014.7 |
| 20260508133335 | 15 | 224 | 0.0 | 6.4 | 0.00 | 0.00 | 0.00 | 52 | 1015.1 |
| 20260508132831 | 16 | 166 | 3.2 | 4.8 | 0.00 | 0.00 | 0.00 | 54 | 1014.7 |
| 20260508132329 | 15 | 246 | 3.2 | 6.4 | 0.00 | 0.00 | 0.00 | 53 | 1014.8 |
| 20260508131826 | 15 | 102 | 3.2 | 9.7 | 0.00 | 0.00 | 0.00 | 51 | 1015.0 |
| 20260508131321 | 15 | 310 | 0.0 | 6.4 | 0.00 | 0.00 | 0.00 | 52 | 1014.9 |
| 20260508130818 | 15 | 12 | 3.2 | 4.8 | 0.00 | 0.00 | 0.00 | 58 | 1014.9 |
| 20260508130315 | 15 | 163 | 3.2 | 6.4 | 0.00 | 0.00 | 0.00 | 51 | 1014.7 |
| 20260508125811 | 14 | 154 | 1.6 | 4.8 | 0.00 | 0.00 | 0.00 | 54 | 1014.8 |
| 20260508125308 | 13 | 164 | 0.0 | 4.8 | 0.00 | 0.00 | 0.00 | 57 | 1014.8 |
| 20260508124806 | 13 | 11 | 3.2 | 6.4 | 0.00 | 0.00 | 0.00 | 53 | 1014.9 |
| 20260508124302 | 13 | 226 | 0.0 | 6.4 | 0.00 | 0.00 | 0.00 | 54 | 1014.8 |
| 20260508123801 | 13 | 147 | 4.8 | 6.4 | 0.00 | 0.00 | 0.00 | 53 | 1014.6 |
| 20260508123258 | 13 | 72 | 1.6 | 4.8 | 0.00 | 0.00 | 0.00 | 58 | 1014.9 |
| 20260508122754 | 13 | 103 | 3.2 | 3.2 | 0.00 | 0.00 | 0.00 | 58 | 1014.7 |
| 20260508122251 | 12 | 216 | 0.0 | 3.2 | 0.00 | 0.00 | 0.00 | 63 | 1014.8 |
| 20260508121749 | 12 | 181 | 4.8 | 4.8 | 0.00 | 0.00 | 0.00 | 65 | 1014.7 |
| 20260508121247 | 12 | 35 | 0.0 | 3.2 | 0.00 | 0.00 | 0.00 | 63 | 1014.9 |
| 20260508120744 | 11 | 166 | 0.0 | 3.2 | 0.00 | 0.00 | 0.00 | 67 | 1014.9 |
| 20260508120242 | 11 | 144 | 0.0 | 3.2 | 0.00 | 0.00 | 0.00 | 62 | 1014.8 |
| 20260508115739 | 12 | 178 | 1.6 | 3.2 | 0.00 | 0.00 | 0.00 | 61 | 1014.9 |
| 20260508115237 | 11 | 250 | 0.0 | 3.2 | 0.00 | 0.00 | 0.00 | 68 | 1014.9 |
| 20260508114733 | 10 | 165 | 1.6 | 3.2 | 0.00 | 0.00 | 0.00 | 68 | 1014.6 |
| 20260508114230 | 9 | 278 | 0.0 | 3.2 | 0.00 | 0.00 | 0.00 | 75 | 1014.6 |
| 20260508113726 | 8 | 230 | 0.0 | 3.2 | 0.00 | 0.00 | 0.00 | 72 | 1014.7 |
| 20260508113225 | 8 | 128 | 3.2 | 3.2 | 0.00 | 0.00 | 0.00 | 74 | 1014.6 |
| 20260508112720 | 8 | 134 | 1.6 | 3.2 | 0.00 | 0.00 | 0.00 | 73 | 1014.4 |
| 20260508112218 | 8 | 78 | 1.6 | 3.2 | 0.00 | 0.00 | 0.00 | 71 | 1014.2 |
| 20260508111715 | 8 | 95 | 0.0 | 3.2 | 0.00 | 0.00 | 0.00 | 71 | 1014.3 |
| 20260508111212 | 8 | 103 | 0.0 | 3.2 | 0.00 | 0.00 | 0.00 | 74 | 1014.4 |
| 20260508110709 | 8 | 89 | 0.0 | 3.2 | 0.00 | 0.00 | 0.00 | 72 | 1014.3 |
| 20260508110206 | 8 | 280 | 0.0 | 3.2 | 0.00 | 0.00 | 0.00 | 71 | 1014.2 |
| 20260508105706 | 8 | 132 | 1.6 | 1.6 | 0.00 | 0.00 | 0.00 | 73 | 1014.4 |
| 20260508105203 | 8 | 125 | 0.0 | 4.8 | 0.00 | 0.00 | 0.00 | 70 | 1014.3 |
| 20260508104701 | 8 | 84 | 0.0 | 3.2 | 0.00 | 0.00 | 0.00 | 73 | 1014.1 |
| 20260508104157 | 8 | 233 | 0.0 | 1.6 | 0.00 | 0.00 | 0.00 | 74 | 1014.2 |
| 20260508103654 | 8 | 89 | 0.0 | 1.6 | 0.00 | 0.00 | 0.00 | 73 | 1014.3 |
| 20260508103152 | 8 | 89 | 0.0 | 3.2 | 0.00 | 0.00 | 0.00 | 73 | 1014.2 |
| 20260508102649 | 8 | 131 | 1.6 | 3.2 | 0.00 | 0.00 | 0.00 | 76 | 1014.3 |
| 20260508102147 | 8 | 137 | 0.0 | 1.6 | 0.00 | 0.00 | 0.00 | 76 | 1014.2 |
| 20260508101643 | 8 | 141 | 0.0 | 3.2 | 0.00 | 0.00 | 0.00 | 79 | 1014.3 |
| 20260508101141 | 8 | 119 | 0.0 | 3.2 | 0.00 | 0.00 | 0.00 | 75 | 1014.3 |
| 20260508100638 | 7 | 62 | 0.0 | 1.6 | 0.00 | 0.00 | 0.00 | 80 | 1014.1 |
| 20260508100137 | 7 | 110 | 0.0 | 3.2 | 0.00 | 0.00 | 0.00 | 78 | 1014.3 |
| 20260508095633 | 7 | 17 | 0.0 | 0.0 | 0.00 | 0.00 | 0.00 | 79 | 1014.4 |
| 20260508095130 | 7 | 116 | 0.0 | 1.6 | 0.00 | 0.00 | 0.00 | 80 | 1014.4 |
| 20260508094627 | 7 | 107 | 0.0 | 1.6 | 0.00 | 0.00 | 0.00 | 79 | 1014.4 |
| 20260508094123 | 7 | 102 | 0.0 | 0.0 | 0.00 | 0.00 | 0.00 | 81 | 1014.3 |
| 20260508093621 | 7 | 124 | 0.0 | 0.0 | 0.00 | 0.00 | 0.00 | 80 | 1014.2 |
| 20260508093119 | 7 | 103 | 0.0 | 0.0 | 0.00 | 0.00 | 0.00 | 80 | 1014.4 |
| 20260508092615 | 7 | 113 | 0.0 | 0.0 | 0.00 | 0.00 | 0.00 | 84 | 1014.4 |
| 20260508092114 | 7 | 157 | 0.0 | 1.6 | 0.00 | 0.00 | 0.00 | 82 | 1014.3 |
| 20260508091611 | 7 | 130 | 0.0 | 3.2 | 0.00 | 0.00 | 0.00 | 82 | 1014.3 |
| 20260508091108 | 7 | 160 | 0.0 | 1.6 | 0.00 | 0.00 | 0.00 | 85 | 1014.5 |
| 20260508090606 | 7 | 150 | 0.0 | 1.6 | 0.00 | 0.00 | 0.00 | 89 | 1014.3 |
| 20260508085559 | 7 | 180 | 0.0 | 0.0 | 0.00 | 0.00 | 0.00 | 87 | 1014.5 |
| 20260508085056 | 7 | 246 | 0.0 | 0.0 | 0.00 | 0.00 | 0.00 | 85 | 1014.5 |
| 20260508084552 | 7 | 173 | 0.0 | 0.0 | 0.00 | 0.00 | 0.00 | 91 | 1014.4 |
| 20260508084050 | 7 | 165 | 0.0 | 0.0 | 0.00 | 0.00 | 0.00 | 88 | 1014.5 |
| 20260508083547 | 7 | 136 | 0.0 | 1.6 | 0.00 | 0.00 | 0.00 | 91 | 1014.4 |
| 20260508083044 | 7 | 122 | 0.0 | 0.0 | 0.00 | 0.00 | 0.00 | 92 | 1014.3 |
| 20260508082540 | 7 | 157 | 0.0 | 0.0 | 0.00 | 0.00 | 0.00 | 92 | 1014.5 |
| 20260508082037 | 7 | 269 | 0.0 | 0.0 | 0.00 | 0.00 | 0.00 | 90 | 1014.6 |
| 20260508081535 | 7 | 135 | 0.0 | 0.0 | 0.05 | 0.00 | 0.00 | 88 | 1014.4 |
| 20260508081030 | 7 | 180 | 0.0 | 3.2 | 0.05 | 0.00 | 0.00 | 88 | 1014.4 |
| 20260508080529 | 7 | 173 | 0.0 | 1.6 | 0.00 | 0.00 | 0.00 | 87 | 1014.5 |
| 20260508080026 | 7 | 91 | 0.0 | 3.2 | 0.00 | 0.00 | 0.00 | 83 | 1014.6 |
| 20260508075522 | 7 | 53 | 1.6 | 3.2 | 0.00 | 0.00 | 0.00 | 81 | 1014.9 |
| 20260508075020 | 7 | 20 | 1.6 | 3.2 | 0.00 | 0.00 | 0.00 | 77 | 1014.6 |
| 20260508074517 | 7 | 44 | 0.0 | 0.0 | 0.00 | 0.00 | 0.00 | 76 | 1014.5 |
| 20260508074014 | 7 | 38 | 0.0 | 3.2 | 0.00 | 0.00 | 0.00 | 75 | 1014.5 |
| 20260508073511 | 7 | 32 | 0.0 | 0.0 | 0.00 | 0.00 | 0.00 | 70 | 1014.2 |
| 20260508073009 | 7 | 119 | 0.0 | 1.6 | 0.00 | 0.00 | 0.00 | 69 | 1014.3 |
| 20260508072504 | 8 | 147 | 0.0 | 0.0 | 0.00 | 0.00 | 0.00 | 69 | 1014.2 |
| 20260508072002 | 8 | 180 | 0.0 | 3.2 | 0.00 | 0.00 | 0.00 | 68 | 1014.2 |
| 20260508071459 | 8 | 15 | 0.0 | 0.0 | 0.00 | 0.00 | 0.00 | 69 | 1014.3 |
| 20260508070957 | 8 | 235 | 0.0 | 1.6 | 0.00 | 0.00 | 0.00 | 71 | 1014.4 |
| 20260508070454 | 8 | 116 | 0.0 | 3.2 | 0.00 | 0.00 | 0.00 | 69 | 1014.4 |
| 20260508065952 | 7 | 113 | 0.0 | 1.6 | 0.00 | 0.00 | 0.00 | 70 | 1014.6 |
| 20260508065450 | 7 | 106 | 0.0 | 1.6 | 0.00 | 0.00 | 0.00 | 71 | 1014.5 |
| 20260508064948 | 7 | 89 | 0.0 | 3.2 | 0.00 | 0.00 | 0.00 | 71 | 1014.6 |
| 20260508064445 | 7 | 89 | 0.0 | 1.6 | 0.00 | 0.00 | 0.00 | 71 | 1014.5 |
| 20260508063943 | 7 | 147 | 0.0 | 3.2 | 0.00 | 0.00 | 0.00 | 71 | 1014.7 |
| 20260508063440 | 7 | 116 | 0.0 | 1.6 | 0.00 | 0.00 | 0.00 | 74 | 1014.6 |
| 20260508062938 | 7 | 55 | 0.0 | 1.6 | 0.00 | 0.00 | 0.00 | 74 | 1014.7 |
| 20260508062435 | 7 | 124 | 0.0 | 1.6 | 0.00 | 0.00 | 0.00 | 71 | 1014.5 |
| 20260508061932 | 7 | 75 | 0.0 | 1.6 | 0.00 | 0.00 | 0.00 | 71 | 1014.7 |
| 20260508061430 | 7 | 112 | 1.6 | 3.2 | 0.00 | 0.00 | 0.00 | 73 | 1014.7 |
| 20260508060925 | 7 | 138 | 0.0 | 3.2 | 0.00 | 0.00 | 0.00 | 75 | 1014.8 |
| 20260508060423 | 7 | 124 | 0.0 | 1.6 | 0.00 | 0.00 | 0.00 | 78 | 1014.9 |
| 20260508055919 | 7 | 166 | 0.0 | 0.0 | 0.00 | 0.00 | 0.00 | 72 | 1014.8 |
| 20260508055416 | 7 | 127 | 0.0 | 1.6 | 0.00 | 0.00 | 0.00 | 73 | 1015.0 |
| 20260508054912 | 7 | 143 | 1.6 | 1.6 | 0.00 | 0.00 | 0.00 | 77 | 1015.0 |
| 20260508054410 | 7 | 120 | 0.0 | 1.6 | 0.00 | 0.00 | 0.00 | 71 | 1014.9 |
| 20260508053907 | 7 | 157 | 0.0 | 0.0 | 0.00 | 0.00 | 0.00 | 75 | 1014.7 |
| 20260508053404 | 7 | 124 | 0.0 | 3.2 | 0.00 | 0.00 | 0.00 | 75 | 1014.9 |
| 20260508052901 | 7 | 110 | 0.0 | 0.0 | 0.00 | 0.00 | 0.00 | 73 | 1014.9 |
| 20260508052359 | 7 | 135 | 0.0 | 0.0 | 0.00 | 0.00 | 0.00 | 73 | 1014.9 |
| 20260508051854 | 7 | 110 | 0.0 | 0.0 | 0.00 | 0.00 | 0.00 | 69 | 1014.9 |
| 20260508051350 | 8 | 103 | 0.0 | 1.6 | 0.00 | 0.00 | 0.00 | 67 | 1014.8 |
| 20260508050847 | 8 | 116 | 0.0 | 1.6 | 0.00 | 0.00 | 0.00 | 67 | 1014.8 |
| 20260508050344 | 8 | 147 | 0.0 | 1.6 | 0.00 | 0.00 | 0.00 | 67 | 1015.0 |
| 20260508045839 | 8 | 159 | 0.0 | 3.2 | 0.00 | 0.00 | 0.00 | 65 | 1014.9 |
| 20260508045337 | 8 | 105 | 0.0 | 0.0 | 0.00 | 0.00 | 0.00 | 65 | 1015.0 |
| 20260508044835 | 8 | 147 | 0.0 | 1.6 | 0.00 | 0.00 | 0.00 | 64 | 1015.0 |
| 20260508044331 | 8 | 150 | 0.0 | 1.6 | 0.00 | 0.00 | 0.00 | 65 | 1015.0 |